Weather History for KPEX - November, 2012

Change the Weather History Date:

Sunday, November 4, 2012

  Actual Average (KLJF) Record (KLJF)
Temperature  
Mean Temperature 36 °F -  
Max Temperature 39 °F 44 °F 74 °F (1975)
Min Temperature 33 °F 28 °F -1 °F (1991)
Degree Days  
Heating Degree Days 29    
Moisture  
Dew Point 31 °F    
Average Humidity 81    
Maximum Humidity 96    
Minimum Humidity 76    
Precipitation  
Precipitation 0.00 in - - ()
Sea Level Pressure  
Sea Level Pressure 30.18 in    
Wind  
Wind Speed 3 mph (ENE)    
Max Wind Speed 8 mph    
Max Gust Speed -    
Visibility 10 miles    
Events Rain    
Averages and records for this station are not official NWS values.
T = Trace of Precipitation, MM = Missing Value Source: NWS Daily Summary

Daily Weather History Graph

Daily Weather History Graph

Search for Another Location

Airport or City:

Trip Planner

Search our weather history database for the weather conditions in past years. The results will help you decide how hot, cold, wet, or windy it might be!

Date:

Astronomy

Nov. 04, 2012 Rise Set
Actual Time 7:03 AM CST 5:01 PM CST
Civil Twilight 6:31 AM CST 5:32 PM CST
Nautical Twilight 5:56 AM CST 6:07 PM CST
Astronomical Twilight 5:22 AM CST 6:42 PM CST
Moon 9:37 PM CST (11/4) 11:50 AM CST (11/4)
Length of Visible Light 11h 00m
Length of Day
9h 58m
Waning Gibbous, 72% of the Moon is Illuminated
Nov 4
Waning Gibbous
Nov 6
Last Quarter
Nov 13
New
Nov 20
First Quarter
Nov 28
Full

Hourly Weather History & Observations

Time (CST) Temp. Windchill Dew Point Humidity Pressure Visibility Wind Dir Wind Speed Gust Speed Precip Events Conditions
12:13 AM 35.6 °F 32.8 °F 31.1 °F 84% 30.21 in 10.0 mi East 3.5 mph - N/A   Overcast
12:33 AM 35.6 °F 32.8 °F 30.9 °F 83% 30.21 in 10.0 mi ENE 3.5 mph - N/A   Overcast
12:53 AM 35.6 °F 32.8 °F 31.1 °F 84% 30.21 in 10.0 mi ENE 3.5 mph - N/A   Overcast
1:13 AM 35.6 °F 32.8 °F 30.9 °F 83% 30.21 in 10.0 mi East 3.5 mph - N/A   Overcast
1:33 AM 35.6 °F 32.8 °F 29.8 °F 80% 30.21 in 10.0 mi East 3.5 mph - N/A   Overcast
1:54 AM 35.6 °F 32.8 °F 29.8 °F 80% 30.20 in 10.0 mi East 3.5 mph - N/A   Overcast
1:13 AM 35.1 °F 32.2 °F 29.8 °F 81% 30.21 in 10.0 mi East 3.5 mph - N/A   Overcast
1:34 AM 35.1 °F 32.2 °F 29.8 °F 81% 30.21 in 10.0 mi East 3.5 mph - N/A   Overcast
1:53 AM 35.1 °F 32.2 °F 30.0 °F 82% 30.21 in 10.0 mi East 3.5 mph - N/A   Overcast
2:13 AM 34.9 °F - 30.0 °F 82% 30.21 in 10.0 mi Calm Calm - N/A   Overcast
2:34 AM 34.9 °F - 30.0 °F 82% 30.21 in 10.0 mi Calm Calm - N/A   Overcast
2:53 AM 34.9 °F - 30.0 °F 82% 30.21 in 10.0 mi Calm Calm - N/A   Overcast
3:13 AM 34.9 °F - 30.2 °F 83% 30.21 in 10.0 mi Calm Calm - N/A   Overcast
3:33 AM 34.9 °F - 30.0 °F 82% 30.21 in 10.0 mi Calm Calm - N/A   Overcast
3:53 AM 34.9 °F - 30.0 °F 82% 30.20 in 10.0 mi Calm Calm - N/A   Overcast
4:14 AM 34.9 °F - 30.0 °F 82% 30.20 in 10.0 mi Calm Calm - N/A   Overcast
4:33 AM 34.9 °F 32.0 °F 30.2 °F 83% 30.20 in 10.0 mi East 3.5 mph - N/A   Overcast
4:53 AM 34.9 °F 32.0 °F 29.8 °F 82% 30.20 in 10.0 mi East 3.5 mph - N/A   Overcast
5:14 AM 34.9 °F - 29.8 °F 82% 30.21 in 10.0 mi Calm Calm - N/A   Overcast
5:33 AM 34.9 °F - 30.2 °F 83% 30.20 in 10.0 mi Calm Calm - N/A   Overcast
5:53 AM 34.9 °F - 29.8 °F 82% 30.20 in 10.0 mi Calm Calm - N/A   Overcast
6:13 AM 34.9 °F - 30.2 °F 83% 30.20 in 10.0 mi Calm Calm - N/A   Overcast
6:33 AM 34.7 °F 31.8 °F 30.2 °F 84% 30.20 in 10.0 mi ENE 3.5 mph - N/A   Overcast
6:53 AM 34.7 °F 31.8 °F 30.2 °F 84% 30.20 in 10.0 mi ENE 3.5 mph - N/A   Overcast
7:13 AM 34.2 °F 28.2 °F 30.0 °F 85% 30.20 in 10.0 mi ENE 6.9 mph - N/A   Overcast
7:33 AM 33.8 °F 28.6 °F 29.3 °F 84% 30.20 in 10.0 mi ENE 5.8 mph - N/A   Overcast
7:54 AM 33.8 °F 29.6 °F 29.3 °F 84% 30.20 in 10.0 mi ENE 4.6 mph - N/A   Overcast
8:13 AM 33.8 °F 30.8 °F 29.3 °F 84% 30.20 in 10.0 mi East 3.5 mph - N/A   Overcast
8:33 AM 34.0 °F - 29.3 °F 83% 30.20 in 10.0 mi Calm Calm - N/A   Overcast
8:53 AM 34.5 °F 30.4 °F 29.7 °F 82% 30.20 in 10.0 mi East 4.6 mph - N/A   Overcast
9:13 AM 34.7 °F 31.8 °F 29.8 °F 82% 30.19 in 10.0 mi East 3.5 mph - N/A   Overcast
9:33 AM 34.9 °F 29.9 °F 30.0 °F 82% 30.19 in 10.0 mi East 5.8 mph - N/A   Overcast
9:53 AM 35.6 °F 32.8 °F 30.6 °F 82% 30.19 in 10.0 mi East 3.5 mph - N/A   Overcast
10:13 AM 35.8 °F 29.4 °F 30.9 °F 82% 30.18 in 10.0 mi East 8.1 mph - N/A   Overcast
10:33 AM 36.1 °F 30.6 °F 31.6 °F 84% 30.18 in 10.0 mi ESE 6.9 mph - N/A   Overcast
10:53 AM 36.5 °F 31.0 °F 32.0 °F 84% 30.18 in 10.0 mi East 6.9 mph - N/A   Overcast
11:13 AM 36.5 °F 31.8 °F 32.0 °F 84% 30.18 in 10.0 mi East 5.8 mph - N/A   Overcast
11:33 AM 36.9 °F 32.2 °F 32.0 °F 83% 30.18 in 10.0 mi East 5.8 mph - N/A   Overcast
11:53 AM 37.0 °F 32.4 °F 32.0 °F 82% 30.17 in 10.0 mi East 5.8 mph - N/A   Overcast
12:13 PM 37.2 °F 32.6 °F 32.0 °F 81% 30.17 in 10.0 mi East 5.8 mph - N/A   Overcast
12:33 PM 37.4 °F 32.8 °F 32.0 °F 81% 30.16 in 10.0 mi East 5.8 mph - N/A   Overcast
12:53 PM 37.9 °F 33.5 °F 32.0 °F 79% 30.15 in 10.0 mi East 5.8 mph - N/A   Overcast
1:14 PM 38.3 °F 33.9 °F 32.0 °F 78% 30.15 in 10.0 mi East 5.8 mph - N/A   Overcast
1:33 PM 38.5 °F 32.7 °F 32.0 °F 78% 30.14 in 10.0 mi East 8.1 mph - N/A   Overcast
1:53 PM 39.0 °F 34.0 °F 32.0 °F 76% 30.14 in 10.0 mi ENE 6.9 mph - N/A   Overcast
2:13 PM 39.2 °F 34.2 °F 32.2 °F 76% 30.14 in 10.0 mi ENE 6.9 mph - N/A   Overcast
2:33 PM 39.0 °F 34.8 °F 32.2 °F 76% 30.14 in 10.0 mi East 5.8 mph - N/A   Overcast
2:53 PM 39.2 °F 35.9 °F 32.4 °F 76% 30.14 in 10.0 mi East 4.6 mph - N/A   Overcast
3:13 PM 38.8 °F 34.6 °F 32.4 °F 78% 30.14 in 10.0 mi ENE 5.8 mph - N/A   Overcast
3:33 PM 39.0 °F 34.8 °F 32.4 °F 77% 30.14 in 10.0 mi ENE 5.8 mph - N/A   Overcast
3:53 PM 38.7 °F 34.3 °F 32.0 °F 77% 30.14 in 10.0 mi East 5.8 mph - N/A   Overcast
4:13 PM 38.3 °F 33.9 °F 32.0 °F 78% 30.14 in 10.0 mi ENE 5.8 mph - N/A   Overcast
4:34 PM 38.3 °F 35.9 °F 32.0 °F 78% 30.14 in 10.0 mi ENE 3.5 mph - N/A   Overcast
4:54 PM 38.3 °F 35.9 °F 32.0 °F 78% 30.14 in 10.0 mi ENE 3.5 mph - N/A   Overcast
5:13 PM 38.3 °F 34.8 °F 32.0 °F 78% 30.14 in 10.0 mi ENE 4.6 mph - N/A   Overcast
5:33 PM 38.5 °F - 32.0 °F 78% 30.14 in 10.0 mi Calm Calm - N/A   Overcast
5:53 PM 38.5 °F 36.1 °F 32.0 °F 78% 30.14 in 10.0 mi NE 3.5 mph - N/A   Overcast
6:13 PM 38.1 °F - 32.0 °F 79% 30.15 in 10.0 mi Calm Calm - N/A   Overcast
6:33 PM 37.8 °F - 32.2 °F 80% 30.15 in 10.0 mi Calm Calm - N/A   Overcast
6:54 PM 37.6 °F - 32.0 °F 80% 30.15 in 10.0 mi Calm Calm - N/A   Overcast
7:13 PM 37.8 °F - 32.2 °F 80% 30.15 in 10.0 mi Calm Calm - N/A   Overcast
7:33 PM 37.6 °F - 32.0 °F 80% 30.15 in 10.0 mi Calm Calm - N/A   Overcast
7:53 PM 37.6 °F - 32.0 °F 80% 30.15 in 10.0 mi Calm Calm - N/A   Overcast
8:13 PM 37.6 °F 35.1 °F 32.0 °F 80% 30.15 in 10.0 mi NE 3.5 mph - N/A   Overcast
8:33 PM 37.8 °F 34.2 °F 32.2 °F 80% 30.15 in 10.0 mi NNE 4.6 mph - N/A   Overcast
8:53 PM 38.3 °F 33.9 °F 32.2 °F 79% 30.15 in 10.0 mi NE 5.8 mph - N/A   Overcast
9:13 PM 37.8 °F 32.5 °F 32.5 °F 81% 30.15 in 10.0 mi NE 6.9 mph - N/A   Overcast
9:33 PM 37.8 °F 32.5 °F 32.2 °F 80% 30.15 in 10.0 mi NE 6.9 mph - N/A   Overcast
9:53 PM 38.3 °F 32.5 °F 32.7 °F 80% 30.15 in 10.0 mi NE 8.1 mph - N/A   Overcast
10:13 PM 38.3 °F 32.5 °F 34.7 °F 87% 30.15 in 5.0 mi NE 8.1 mph - N/A   Overcast
10:33 PM 37.4 °F 32.8 °F 35.2 °F 92% 30.15 in 4.0 mi NE 5.8 mph - N/A   Drizzle
10:53 PM 36.5 °F 30.3 °F 35.4 °F 96% 30.15 in 4.0 mi NE 8.1 mph - N/A Rain Rain